FW6365 Weather Reports


Display with metric or nautical units.
time (UTC)temp
F
wind
direction
speed
MPH
gust
MPH
rain 1hr
in
rain 24hr
in
rain mn
in
humidity
%
barometer
mb
20260502164025 55 338 2.0 5.0 0.00 0.00 0.00 88 1017.5
20260502163525 55 307 2.0 4.0 0.00 0.00 0.00 89 1017.4
20260502163042 54 69 1.0 6.0 0.00 0.00 0.00 91 1017.4
20260502162529 53 86 2.0 6.0 0.00 0.00 0.00 92 1017.4
20260502162026 52 291 2.0 6.0 0.00 0.00 0.00 92 1017.4
20260502161539 52 94 0.0 3.0 0.00 0.00 0.00 94 1017.5
20260502161029 52 298 0.0 2.0 0.00 0.00 0.00 94 1017.6
20260502160528 51 68 1.0 3.0 0.00 0.00 0.00 94 1017.6
20260502152024 50 348 2.0 6.0 0.00 0.00 0.00 97 1017.5
20260502151544 50 11 1.0 6.0 0.00 0.00 0.00 97 1017.6
20260502151025 49 60 3.0 6.0 0.00 0.00 0.00 97 1017.6
20260502150525 49 307 1.0 2.0 0.00 0.00 0.00 98 1017.5
20260502130528 43 0 0.0 2.0 0.00 0.00 0.00 97 1017.1
20260502123524 45 0 0.0 2.0 0.00 0.00 0.00 97 1016.9
20260502123043 44 348 1.0 2.0 0.00 0.00 0.00 97 1017.0
20260502122525 44 346 0.0 1.0 0.00 0.00 0.00 97 1017.3
20260502122025 44 285 0.0 1.0 0.00 0.00 0.00 97 1017.3
20260502121540 44 262 0.0 1.0 0.00 0.00 0.00 97 1017.4
20260502121026 44 263 0.0 1.0 0.00 0.00 0.00 97 1017.4
20260502120525 44 0 0.0 1.0 0.00 0.00 0.00 96 1017.4
20260502115525 45 0 0.0 1.0 0.00 0.00 0.00 96 1017.6
20260502115025 45 0 0.0 1.0 0.00 0.00 0.00 96 1017.5
20260502114600 45 0 0.0 1.0 0.00 0.00 0.00 96 1017.4
20260502114023 45 0 0.0 1.0 0.00 0.00 0.00 96 1017.4
20260502113525 45 262 1.0 1.0 0.00 0.00 0.00 97 1017.4
20260502113046 45 0 0.0 0.0 0.00 0.00 0.00 96 1017.5
20260502112525 45 175 0.0 1.0 0.00 0.00 0.00 96 1017.5
20260502112027 45 0 0.0 3.0 0.00 0.00 0.00 96 1017.5
20260502111542 45 175 1.0 3.0 0.00 0.00 0.00 96 1017.6
20260502111025 45 164 0.0 1.0 0.00 0.00 0.00 96 1017.4
20260502110525 45 0 0.0 1.0 0.00 0.00 0.00 96 1017.4
20260502110041 46 21 0.0 1.0 0.00 0.00 0.00 96 1017.3
20260502105525 46 0 0.0 1.0 0.00 0.00 0.00 96 1017.2
20260502105025 46 0 0.0 2.0 0.00 0.00 0.00 96 1017.1
20260502104541 46 0 0.0 2.0 0.00 0.00 0.00 96 1017.3
20260502104024 46 21 1.0 2.0 0.00 0.00 0.00 96 1017.4
20260502103525 46 0 0.0 1.0 0.00 0.00 0.00 96 1017.8
20260502103040 46 21 1.0 1.0 0.00 0.00 0.00 97 1017.8
20260502102526 45 125 0.0 0.0 0.00 0.00 0.00 96 1018.0
20260502102026 45 0 0.0 0.0 0.00 0.00 0.00 96 1018.2
20260502101558 45 0 0.0 1.0 0.00 0.00 0.00 96 1018.2
20260502101025 45 0 0.0 1.0 0.00 0.00 0.00 96 1018.2
20260502100525 45 125 0.0 1.0 0.00 0.00 0.00 96 1018.2
20260502091024 47 115 1.0 3.0 0.00 0.00 0.00 95 1017.4
20260502090524 47 0 0.0 0.0 0.00 0.00 0.00 95 1017.3
20260502071025 48 153 0.0 2.0 0.00 0.00 0.00 92 1017.5
20260502070525 48 120 0.0 2.0 0.00 0.00 0.00 92 1017.4
20260502070035 48 138 1.0 2.0 0.00 0.00 0.00 92 1017.3
20260502065525 48 142 1.0 1.0 0.00 0.00 0.00 91 1017.3
20260502065025 49 124 0.0 3.0 0.00 0.00 0.00 91 1017.2
20260502064611 49 142 0.0 3.0 0.00 0.00 0.00 91 1017.2
20260502064025 49 161 2.0 3.0 0.00 0.00 0.00 91 1017.3
20260502063525 49 170 1.0 4.0 0.00 0.00 0.00 90 1017.3
20260502063052 49 139 1.0 4.0 0.00 0.00 0.00 90 1017.3
20260502062525 49 128 2.0 4.0 0.00 0.00 0.00 90 1017.2
20260502062024 50 157 3.0 4.0 0.00 0.00 0.00 89 1017.3
20260502061543 50 147 1.0 3.0 0.00 0.00 0.00 89 1017.2
20260502061024 50 138 2.0 3.0 0.00 0.00 0.00 90 1017.3
20260502060527 50 181 1.0 2.0 0.00 0.00 0.00 89 1017.2
20260502060046 50 171 1.0 2.0 0.00 0.00 0.00 89 1017.3
20260502055524 51 172 2.0 4.0 0.00 0.00 0.00 88 1017.3
20260502055024 51 161 2.0 4.0 0.00 0.00 0.00 88 1017.3
20260502054538 51 145 2.0 4.0 0.00 0.00 0.00 88 1017.3
20260502054025 51 135 2.0 4.0 0.00 0.00 0.00 88 1017.3
20260502053524 51 150 2.0 4.0 0.00 0.00 0.00 88 1017.3
20260502053049 51 148 3.0 4.0 0.00 0.00 0.00 88 1017.2
20260502052525 51 188 3.0 4.0 0.00 0.00 0.00 88 1017.3
20260502052025 51 173 2.0 5.0 0.00 0.00 0.00 87 1017.2
20260502051542 51 152 2.0 6.0 0.00 0.00 0.00 87 1017.2
20260502051027 51 167 3.0 6.0 0.00 0.00 0.00 87 1017.1
20260502050525 52 175 4.0 6.0 0.00 0.00 0.00 87 1017.1
20260502050045 52 161 3.0 5.0 0.00 0.00 0.00 86 1017.1
20260502045525 52 175 3.0 6.0 0.00 0.00 0.00 86 1017.1
20260502045024 52 153 4.0 7.0 0.00 0.00 0.00 86 1017.0
20260502044541 53 171 5.0 8.0 0.00 0.00 0.00 85 1017.0
20260502044026 53 169 5.0 8.0 0.00 0.00 0.00 84 1016.8
20260502043526 53 160 5.0 8.0 0.00 0.00 0.00 84 1016.7
20260502043105 54 146 5.0 7.0 0.00 0.00 0.00 83 1016.8
20260502042526 54 143 4.0 7.0 0.00 0.00 0.00 82 1016.6
20260502042026 55 142 4.0 8.0 0.00 0.00 0.00 81 1016.5
20260502041546 55 244 4.0 9.0 0.00 0.00 0.00 80 1016.3
20260502041026 55 225 3.0 9.0 0.00 0.00 0.00 80 1016.3
20260502040528 55 235 4.0 8.0 0.00 0.00 0.00 80 1016.3
20260502040045 56 190 4.0 8.0 0.00 0.00 0.00 80 1016.3
20260502035527 56 225 3.0 9.0 0.00 0.00 0.00 79 1016.1
20260502035028 56 210 3.0 10.0 0.00 0.00 0.00 79 1016.1
20260502034541 57 231 5.0 10.0 0.00 0.00 0.00 78 1016.0
20260502034027 57 193 4.0 9.0 0.00 0.00 0.00 78 1015.9
20260502033527 57 219 4.0 8.0 0.00 0.00 0.00 77 1015.8
20260502033040 57 188 3.0 10.0 0.00 0.00 0.00 77 1015.8
20260502032526 58 222 4.0 10.0 0.00 0.00 0.00 76 1015.8
20260502032026 58 162 4.0 9.0 0.00 0.00 0.00 77 1015.8
20260502031540 58 173 3.0 9.0 0.00 0.00 0.00 76 1015.7
20260502031027 59 196 4.0 9.0 0.00 0.00 0.00 75 1015.6
20260502030526 59 179 4.0 10.0 0.00 0.00 0.00 74 1015.4
20260502030047 60 198 4.0 10.0 0.00 0.00 0.00 73 1015.4
20260502025526 60 157 3.0 7.0 0.00 0.00 0.00 72 1015.3
20260502025030 61 218 3.0 9.0 0.00 0.00 0.00 71 1015.3
20260502024541 61 211 4.0 9.0 0.00 0.00 0.00 70 1015.1
20260502024026 61 169 4.0 10.0 0.00 0.00 0.00 69 1015.1
20260502023526 61 194 4.0 10.0 0.00 0.00 0.00 68 1015.0
20260502023044 62 189 5.0 10.0 0.00 0.00 0.00 68 1015.0
20260502022527 62 194 4.0 10.0 0.00 0.00 0.00 67 1015.0
20260502022030 62 201 5.0 10.0 0.00 0.00 0.00 68 1014.9
20260502021541 62 231 3.0 15.0 0.00 0.00 0.00 67 1015.0
20260502021027 63 221 4.0 15.0 0.00 0.00 0.00 67 1014.9
20260502020530 63 180 7.0 11.0 0.00 0.00 0.00 66 1015.0
20260502020040 64 220 4.0 12.0 0.00 0.00 0.00 66 1015.0
20260502015527 64 244 6.0 12.0 0.00 0.00 0.00 64 1014.9
20260502015027 65 186 3.0 11.0 0.00 0.00 0.00 66 1014.9
20260502014542 65 211 4.0 11.0 0.00 0.00 0.00 65 1015.0
20260502014028 65 224 4.0 8.0 0.00 0.00 0.00 65 1014.9
20260502013526 66 229 4.0 8.0 0.00 0.00 0.00 65 1014.9
20260502013049 66 254 4.0 9.0 0.00 0.00 0.00 65 1015.0
20260502012526 66 232 3.0 13.0 0.00 0.00 0.00 66 1015.1
20260502012030 66 263 4.0 13.0 0.00 0.00 0.00 64 1015.0
20260502011539 67 200 4.0 11.0 0.00 0.00 0.00 64 1015.0
20260502011026 67 217 5.0 13.0 0.00 0.00 0.00 64 1015.0
20260502010527 67 254 8.0 15.0 0.00 0.00 0.00 62 1015.0
20260502010043 67 192 7.0 15.0 0.00 0.00 0.00 63 1014.9
20260502005527 68 256 8.0 15.0 0.00 0.00 0.00 63 1014.9
20260502005028 68 221 7.0 14.0 0.00 0.00 0.00 62 1014.9
20260502004544 69 257 6.0 14.0 0.00 0.00 0.00 63 1015.0
20260502004026 69 229 6.0 13.0 0.00 0.00 0.00 62 1014.9
20260502003526 70 257 6.0 14.0 0.00 0.00 0.00 61 1014.8
20260502003040 70 251 6.0 14.0 0.00 0.00 0.00 62 1014.7
20260502002526 71 252 8.0 14.0 0.00 0.00 0.00 62 1014.7
20260502002026 71 267 7.0 12.0 0.00 0.00 0.00 62 1014.6
20260502001540 72 283 8.0 12.0 0.00 0.00 0.00 61 1014.6
20260502001027 72 211 5.0 12.0 0.00 0.00 0.00 63 1014.6
20260502000528 72 246 6.0 12.0 0.00 0.00 0.00 62 1014.7
20260502000039 72 265 4.0 12.0 0.00 0.00 0.00 61 1014.6
20260501235526 72 278 5.0 13.0 0.00 0.00 0.00 59 1014.6
20260501235028 71 269 6.0 13.0 0.00 0.00 0.00 61 1014.5
20260501234543 71 269 5.0 12.0 0.00 0.00 0.00 58 1014.6
20260501234028 71 255 6.0 11.0 0.00 0.00 0.00 59 1014.7
20260501233528 71 254 5.0 13.0 0.00 0.00 0.00 62 1014.7
20260501233102 71 240 5.0 13.0 0.00 0.00 0.00 61 1014.8
20260501232526 72 261 7.0 14.0 0.00 0.00 0.00 59 1014.7
20260501232028 73 250 5.0 14.0 0.00 0.00 0.00 58 1014.8
20260501231551 73 244 6.0 13.0 0.00 0.00 0.00 58 1014.9
20260501231026 74 244 6.0 13.0 0.00 0.00 0.00 57 1014.9
20260501230527 74 321 5.0 11.0 0.00 0.00 0.00 56 1015.0
20260501230050 74 263 5.0 10.0 0.00 0.00 0.00 59 1015.0
20260501225527 74 238 5.0 12.0 0.00 0.00 0.00 56 1015.1
20260501225028 74 234 4.0 12.0 0.00 0.00 0.00 57 1015.1
20260501224548 74 226 5.0 12.0 0.00 0.00 0.00 55 1015.2
20260501224026 75 250 5.0 10.0 0.00 0.00 0.00 57 1015.2
20260501223526 75 271 5.0 10.0 0.00 0.00 0.00 57 1015.1
20260501223045 75 123 3.0 11.0 0.00 0.00 0.00 57 1015.2
20260501222526 75 278 5.0 11.0 0.00 0.00 0.00 61 1015.2
20260501222027 74 148 5.0 10.0 0.00 0.00 0.00 60 1015.2
20260501221541 74 184 2.0 5.0 0.00 0.00 0.00 60 1015.2
20260501221030 74 226 2.0 9.0 0.00 0.00 0.00 56 1015.3
20260501220526 74 158 4.0 10.0 0.00 0.00 0.00 59 1015.3
20260501220041 74 208 7.0 10.0 0.00 0.00 0.00 58 1015.4
20260501215527 74 160 4.0 9.0 0.00 0.00 0.00 60 1015.5
20260501215029 74 216 2.0 8.0 0.00 0.00 0.00 58 1015.5
20260501214539 75 130 1.0 8.0 0.00 0.00 0.00 59 1015.5
20260501214026 74 158 0.0 8.0 0.00 0.00 0.00 59 1015.5
20260501213526 74 281 3.0 8.0 0.00 0.00 0.00 59 1015.5
20260501213045 75 286 3.0 7.0 0.00 0.00 0.00 59 1015.6
20260501212526 75 104 2.0 6.0 0.00 0.00 0.00 59 1015.6
20260501212026 74 0 1.0 3.0 0.00 0.00 0.00 60 1015.5
20260501211546 73 78 1.0 5.0 0.00 0.00 0.00 63 1015.7
20260501211025 72 319 2.0 5.0 0.00 0.00 0.00 62 1015.7
20260501210527 72 337 1.0 5.0 0.00 0.00 0.00 62 1015.9
20260501210040 72 244 2.0 6.0 0.00 0.00 0.00 62 1016.0
20260501205526 72 259 1.0 8.0 0.00 0.00 0.00 62 1016.0
20260501205026 71 142 4.0 9.0 0.00 0.00 0.00 62 1016.0
20260501204547 71 224 5.0 9.0 0.00 0.00 0.00 63 1016.2
20260501204025 71 157 3.0 8.0 0.00 0.00 0.00 66 1016.1
20260501203526 71 211 3.0 9.0 0.00 0.00 0.00 65 1016.2
20260501203040 70 213 3.0 9.0 0.00 0.00 0.00 63 1016.1
20260501202526 70 233 4.0 8.0 0.00 0.00 0.00 64 1016.2
20260501202026 70 217 4.0 8.0 0.00 0.00 0.00 63 1016.3
20260501201546 70 221 6.0 8.0 0.00 0.00 0.00 62 1016.3
20260501201026 70 210 4.0 7.0 0.00 0.00 0.00 66 1016.3
20260501200526 70 173 1.0 7.0 0.00 0.00 0.00 62 1016.2
20260501200045 70 200 2.0 7.0 0.00 0.00 0.00 61 1016.2
20260501195530 70 186 3.0 6.0 0.00 0.00 0.00 62 1016.2
20260501195026 69 0 1.0 7.0 0.00 0.00 0.00 61 1016.2
20260501194545 70 209 4.0 7.0 0.00 0.00 0.00 66 1016.2
20260501194026 69 232 2.0 7.0 0.00 0.00 0.00 62 1016.4
20260501193526 70 236 2.0 5.0 0.00 0.00 0.00 65 1016.3
20260501193041 69 84 0.0 4.0 0.00 0.00 0.00 60 1016.5
20260501192526 69 235 1.0 5.0 0.00 0.00 0.00 62 1016.4
20260501192026 68 217 2.0 8.0 0.00 0.00 0.00 63 1016.6
20260501191542 68 302 2.0 8.0 0.00 0.00 0.00 66 1016.7
20260501191026 69 326 4.0 7.0 0.00 0.00 0.00 62 1016.8
20260501190526 68 18 2.0 6.0 0.00 0.00 0.00 62 1016.7
20260501190045 68 89 2.0 6.0 0.00 0.00 0.00 63 1016.9
20260501185526 68 68 0.0 4.0 0.00 0.00 0.00 63 1016.9
20260501185025 67 234 1.0 8.0 0.00 0.00 0.00 65 1016.8
20260501184546 67 30 3.0 8.0 0.00 0.00 0.00 68 1017.0
20260501184026 67 319 3.0 5.0 0.00 0.00 0.00 63 1017.0
20260501183526 67 292 0.0 4.0 0.00 0.00 0.00 65 1017.0
20260501183047 66 206 0.0 4.0 0.00 0.00 0.00 70 1017.1
20260501182529 65 173 2.0 5.0 0.00 0.00 0.00 68 1017.1
20260501182030 65 225 2.0 6.0 0.00 0.00 0.00 68 1017.0
20260501181541 65 275 1.0 6.0 0.00 0.00 0.00 71 1017.1
20260501181026 64 338 2.0 6.0 0.00 0.00 0.00 69 1017.2
20260501180526 64 212 2.0 5.0 0.00 0.00 0.00 74 1017.2
20260501180049 64 254 1.0 3.0 0.00 0.00 0.00 74 1017.2
20260501175526 63 335 1.0 3.0 0.00 0.00 0.00 74 1017.2
20260501175025 62 252 1.0 3.0 0.00 0.00 0.00 78 1017.3
20260501174543 62 241 2.0 3.0 0.00 0.00 0.00 76 1017.3
20260501174025 61 230 2.0 3.0 0.00 0.00 0.00 77 1017.4
20260501173526 61 248 1.0 3.0 0.00 0.00 0.00 77 1017.4
20260501173047 61 323 0.0 2.0 0.00 0.00 0.00 76 1017.4
20260501172528 61 159 1.0 5.0 0.00 0.00 0.00 78 1017.5
20260501172029 60 155 0.0 5.0 0.00 0.00 0.00 78 1017.5
20260501171552 60 198 1.0 3.0 0.00 0.00 0.00 79 1017.6
20260501171027 60 0 1.0 2.0 0.00 0.00 0.00 79 1017.6
20260501170526 59 0 0.0 2.0 0.00 0.00 0.00 80 1017.7
20260501170039 59 162 0.0 2.0 0.00 0.00 0.00 81 1017.6
20260501165526 58 74 1.0 4.0 0.00 0.00 0.00 81 1017.7
20260501165027 58 123 1.0 4.0 0.00 0.00 0.00 81 1017.7